99P/Kowal 1 

Epoch 2007 Jan. 20.0 TT = JDT 2454120.5  

T 2007 Jan. 15.71805 TT                                 Nakano

q   4.7183044            (2000.0)            P               Q

n   0.06533247     Peri.  172.82639     -0.93199045     +0.36068728

a   6.1054356      Node    28.39936     -0.33622160     -0.82303834

e   0.2271961      Incl.    4.34512     -0.13545785     -0.43876255

P  15.09

From 40 observations 1977-1995, mean residual 0".78.

Residuals in seconds of arc 

1977/                     910222 691  0.7+  0.4+    920307 691  0.1-  0.8-  

770424 675  0.2-  1.6+    910320 372  0.2-  0.0     920423 809  1.5+  0.7+  

770425 675  0.2+  0.9+    910320 372  0.1-  1.2+    920423 809  1.6+  1.4+  

770426 675  0.1-  1.2+    910403 372  0.4-  0.7-    920423 809 (3.4+  0.4+) 

770517 675  0.2-  1.4+    910403 372  0.2+  0.2+    920425 809  0.3-  0.7-  

770519 675  0.0   1.3+    1992/                     920425 809  0.7-  0.5-  

770613 675  0.4+  0.3+    920226 372  0.6+  0.5-    920425 809  0.2-  0.9-  

770617 801  2.2+  2.1-    920227 372  0.2-  1.2-    920425 691  0.3+  0.1+  

1991/                     920305 691  1.1-  0.7-    920425 691  0.1+  0.0   

910220 413 (3.5+  0.2-)   920305 691  1.2-  0.6-    920425 691  0.4+  0.4+  

910221 691  0.1+  0.6-    920305 691  0.9-  0.5-    1995/                   

910221 691  0.1-  0.3-    920305 691  1.0-  0.8-    950621 691  0.7+  0.3+  

910221 691  0.1-  0.3-    920305 691  1.2-  0.6-    950621 691  0.3-  0.3+  

910222 691  0.1+  0.7+    920305 691  1.6-  0.6-    950621 691  0.6-  0.4-  

910222 691  0.4+  0.7+    920307 691  0.8+  0.8-    950621 691  0.2+  0.0   

910222 691  0.2+  0.6+    920307 691 (3.6+  0.7-)                           





    P/2001 WF2 (LONEOS)                                                   

Epoch 2007 Jan. 20.0 TT = JDT 2454120.5  

T 2007 Feb. 6.18669 TT                                  Nakano

q   0.9796689            (2000.0)            P               Q

n   0.19626470     Peri.   51.44763     -0.56228524     -0.77775132

a   2.9325218      Node    75.06050     +0.63899595     -0.62430228

e   0.6659295      Incl.   16.90517     +0.52489949     -0.07314059

P   5.02 (+/- 0.02 day)

From 104 observations 2001 Nov. 17-2002 Apr. 17, mean residual 0".52.

Residuals in seconds of arc 

2001/                     011207 658  0.1+  0.0     011219 699  0.3-  0.2-  

011117 699  0.2+  1.1+    011207 658  0.6-  0.1-    011219 699  0.6-  0.0   

011117 699  1.0-  0.4+    011208 118  0.5+  0.1-    2002/                   

011117 699  0.2-  0.1-    011208 118  0.1-  0.4+    020103 118  0.4+  0.1-  

011117 699  0.8-  0.5+    011208 118  0.9-  0.5+    020103 118  0.5+  0.6+  

011117 046  0.5-  0.5-    011209 699  0.3-  0.2+    020103 611  0.6-  0.7+  

011117 046  1.0-  0.8-    011209 699  0.0   0.6+    020103 611  0.0   1.1-  

011117 046  0.1+  0.7-    011209 699  0.2-  0.6-    020103 611  0.3+  0.5-  

011117 046  0.5-  0.2+    011209 699  0.4-  0.1+    020104 118  0.6+  1.1-  

011117 046  0.1-  0.7-    011209 118  0.5-  0.5+    020104 118  0.8+  1.2+  

011120 046  0.1+  0.7-    011209 118  0.1+  0.1+    020104 118  1.0+  0.5-  

011120 046  0.7+  0.4+    011209 118  0.1-  0.2+    020104 118  0.6-  0.1-  

011120 046  0.1-  0.2-    011209 046  0.2-  0.2+    020107 704  1.5-  0.1-  

011120 046  0.3-  0.1+    011209 046  0.3-  0.2+    020107 704  0.5+  0.1-  

011120 046  1.8+  0.8-    011209 046  0.4+  0.4+    020107 704  0.1+  0.3-  

011120 557  0.2-  0.7+    011209 046  1.0-  0.5+    020107 704  0.3+  0.9+  

011120 557  0.0   0.2+    011214 704  0.0   0.3+    020107 704  0.0   0.9+  

011121 918  0.4+  0.2+    011214 704  0.1-  0.0     020213 696  0.4-  0.4-  

011121 918  0.1-  0.4+    011214 704  0.1-  0.5-    020213 696  0.0   0.3-  

011121 918  0.2-  0.5+    011214 704  0.0   0.2-    020215 118  0.5+  0.2+  

011202 715  0.1-  0.7-    011214 704  0.5+  0.2+    020215 118  0.2+  0.3+  

011202 715  0.7+  1.8-    011215 118  0.7+  0.5-    020215 118  1.0+  0.3+  

011202 715  0.4-  1.2-    011215 118  0.3-  0.4-    020311 696  0.2-  0.5-  

011202 118  0.3+  0.4-    011215 118  0.0   0.2-    020311 696  0.1-  0.5-  

011202 118  1.1+  0.7-    011218 704  0.1+  0.1-    020311 696  0.2-  1.0-  

011204 413  0.2+  0.1-    011218 704  0.1-  0.1-    020311 360  0.3+  0.1+  

011204 413  0.4+  0.1-    011218 704  0.0   0.2-    020311 360  0.5+  0.0   

011204 413  0.0   0.1+    011218 704  0.0   0.2+    020412 360  0.9-  0.9-  

011205 670  0.6-  1.5+    011218 704  0.1-  0.4+    020412 360  0.2+  0.1-  

011205 670  0.2+  1.1-    011219 704  0.3+  0.3+    020412 360  0.3+  0.4+  

011207 704  0.5+  0.1-    011219 704  0.0   0.4+    020417 046  0.5-  0.2+  

011207 704  0.4+  0.2-    011219 704  0.4+  0.6+    020417 046  0.7+  0.4+  

011207 704  0.5-  0.6-    011219 704  0.1+  0.6+    020417 046  0.3+  0.2-  

011207 704  0.1+  0.1+    011219 704  0.2+  0.3+    020417 046  0.6-  0.7+  

011207 704  0.3+  0.2+    011219 699  0.6+  0.6+    

011207 658  0.0   0.4+    011219 699  0.0   0.3-    





    P/2001 Q2 (Petriew) 

Epoch 2007 Mar. 1.0 TT = JDT 2454160.5  

T 2007 Feb. 24.62780 TT                                 Nakano

q   0.9376025            (2000.0)            P               Q

n   0.18005208     Peri.  181.92156     +0.80932388     -0.57154317

a   3.1060179      Node   214.10276     +0.54206449     +0.81556343

e   0.6981336      Incl.   13.97471     +0.22618785     +0.09052458

P   5.47 (+/- 0.01 day)

From 420 observations 2001 Aug. 19-2002 Mar. 8, mean residual 0".69.

Residuals in seconds of arc 

2001/                     010823 232  0.4+  0.6-    010916 170  0.0   0.0   

010819 921  1.7+  1.0+    010823 232  1.0+  0.6-    010916 372  0.2-  0.4+  

010819 921 (2.4+  0.5-)   010823 458 (2.5-  1.8-)   010917 402  0.4+  0.1-  

010819 921  1.3+  1.6+    010823 921  0.4-  1.5-    010917 402  0.5+  0.0   

010819 921  1.1+  0.4+    010823 921  0.9-  0.5+    010917 402  0.5+  0.2-  

010820 557  0.0   0.5+    010823 352 (0.6-  2.1-)   010917 372  0.1-  1.2+  

010820 557  0.1-  0.5+    010823 402  1.3+  0.0     010918 201  0.4+  0.1+  

010820 349  0.0   0.1-    010823 352  0.8-  1.4-    010918 201  0.2-  0.2+  

010820 349  0.4+  0.2+    010823 402  1.2+  0.1+    010918 201  0.0   0.2+  

010820 349  0.4-  0.5+    010823 402  1.2+  0.1+    010918 349  1.1+  0.6+  

010820 349  0.3+  0.1-    010824 235  0.0   0.4+    010918 340  0.1+  0.3+  

010821 151  0.8+  1.2+    010824 046  1.0+  0.0     010918 422  1.1+  0.0   

010821 107  0.2-  0.0     010824 046  0.7+  0.2+    010918 340  0.3-  0.4-  

010821 107  0.9+  0.2+    010824 046  1.1+  0.1+    010918 422  1.1+  0.0   

010821 151  0.5+  0.7+    010824 046  1.2+  0.2+    010918 340  0.1-  0.6-  

010821 620  0.1-  0.5-    010824 046  1.1+  0.5+    010918 422  1.1+  0.0   

010821 151  0.4-  1.2+    010824 046  1.3+  0.2+    010918 340  0.4+  0.4-  

010821 151  0.2+  0.2+    010824 170  0.3+  0.5-    010918 349  0.7+  0.4+  

010821 620  0.0   0.4-    010824 046  1.1+  0.0     010918 349  0.5+  0.7+  

010821 620  0.2-  0.3-    010824 170  0.5+  0.2-    010919 342  1.0+  0.4+  

010821 170  0.7-  0.1-    010824 170  0.4+  0.4-    010919 342  0.9+  0.8-  

010821 595  0.4-  0.5+    010824 452  1.4+  0.5-    010920 452  1.4-  0.1+  

010821 170  0.4+  0.2-    010824 452  1.1-  0.5+    010920 452  0.7-  0.2+  

010821 595  0.7-  0.2+    010824 452  1.2+  0.4+    010920 452  1.2+  1.9+  

010821 620  0.3-  0.4-    010824 452  0.0   0.4-    010920 452 (3.8+  1.6-) 

010821 170  0.9-  0.1+    010824 452  0.9+  0.3+    010920 452  0.8+  0.5+  

010821 595  0.2-  0.4+    010824 452  0.9+  0.2-    010920 452  0.2+  0.9+  

010821 595  0.1-  0.2-    010824 452  0.1+  0.3+    010920 452  0.1-  0.8+  

010821 620  0.1-  0.4-    010824 452  0.8+  0.3+    010920 452  0.9+  0.2+  

010821 170  0.3-  0.1-    010824 452  0.6+  0.4+    010920 452  1.5-  0.3+  

010821 170  1.3-  0.0     010824 452  0.2-  0.1+    010920 452  0.7+  0.3+  

010821 170  0.0   0.2-    010824 452  0.2+  0.3+    010920 452  1.0-  0.4+  

010821 213  0.2-  0.3-    010824 452  0.2+  0.5+    010920 452  0.6-  1.1+  

010821 213  0.3-  0.0     010824 452  0.4+  0.2+    010920 452  0.2+  0.3+  

010821 213  0.4-  0.4-    010824 452  0.0   0.0     010920 452  0.1-  0.8-  

010821 213  1.3-  0.1-    010824 452  0.8+  0.1-    010921 372  1.1+  0.9-  

010821 213  0.4-  0.2+    010824 850  0.7+  0.1-    010922 867  0.8+  0.5-  

010821 213  0.3-  0.4+    010824 850  0.1+  0.4-    010922 867  1.1+  0.1+  

010821 213  0.4-  0.0     010824 850  0.3+  0.6-    010922 867  1.1+  0.3-  

010821 170  0.5+  0.2-    010824 886  1.2-  0.0     010923 903  1.1-  0.0   

010821 627  1.1-  0.2-    010824 886  0.5-  0.1+    010923 903  1.0-  0.2-  

010821 627  1.0-  0.3-    010824 886 (2.6-  0.1-)   010923 903  1.2-  0.3-  

010821 470  0.2+  1.0+    010825 049  1.1-  1.1+    010923 349  0.3-  0.4-  

010821 470  0.8-  0.6+    010825 049 (3.3-  1.1+)   010923 349  0.2-  0.4-  

010821 627  1.0-  0.2-    010825 049 (3.4-  1.5+)   010923 402  0.4+  0.5-  

010821 470  1.2-  1.0+    010825 049 (4.5-  0.9+)   010923 349  0.5-  0.1-  

010821 627  0.9-  0.2-    010825 049 (4.4-  1.2+)   010923 402  0.5+  0.4-  

010821 627  0.8-  0.3-    010825 049 (4.4-  1.1+)   010923 349  0.2-  0.3-  

010821 946  0.6-  0.4-    010825 636  0.5+  0.5+    010923 402  0.6+  0.4-  

010821 946  0.6-  0.3-    010825 636  0.9+  0.8+    010924 213  0.4-  0.0   

010821 946  0.5-  0.3-    010825 636  1.2+  1.4+    010924 213  0.4-  0.8-  

010821 586  0.8+  0.1-    010825 213  1.2-  0.3-    010924 213  1.1-  1.3-  

010821 946  0.7-  0.4-    010825 046  0.9+  0.6+    010924 170  0.2+  0.6-  

010821 946  0.6-  0.5-    010825 046  0.9+  0.6+    010924 213  1.0-  0.8-  

010821 586  0.7+  0.1-    010825 046  0.9+  0.6+    010924 213  0.3-  1.4-  

010821 170 (2.1+  0.5-)   010825 213  1.1-  0.2+    010924 170  0.7+  0.6-  

